FENGYUN 1C DEB

Satellite information

Favourite Embed

Satellite Type and Status

DEBRISIN ORBIT

Key statistics

Satellite FENGYUN 1C DEB at a glance.

Uptime

9555

Days in orbit

Revolutions

≈ 14.3

Per day

Orbit

SSO

Sun Synchronous Orbit

Inclination

97.9

Latest

Satellite identification and parameters

Extended collection of information and parameters for FENGYUN 1C DEB.

Object identification

Identified? True

Debris? True

Object name: FENGYUN 1C DEB

International designator: 1999-025AXD

Object number (NORAD): 30867

Object ID (CCSDS): 30867

Country: PEOPLES REPUBLIC OF CHINA (PRC)

Current information (Y/N): Y

RCS size: SMALL

Orbital parameters

Period: 100.981 minutes

Inclination: 97.8771 deg

SMA: 7183.217 km

Apoapsis: 843.906 km

Periapsis: 766.258 km

RAAN: 110.3834 deg

Eccentricy: 0.0054048

Argument of periapsis: 107.0078 deg

Mean anomaly: 282.2595 deg

Mean motion: 14.26015617 rev/day

Mean motion (dot): 0.00003141 rev/day2

B* drag term: 0.0013107 1/REarth

Two-line elements (TLE)

Creation date: July 6, 2025, 10:36 p.m.

Reference frame: TEME

Reference center: EARTH

Epoch: July 6, 2025, 6:04 p.m. UTC

TLE line 0: 0 FENGYUN 1C DEB

TLE line 1: 1 30867U 99025AXD 25187.75308167 .00003141 00000-0 13107-2 0 9992

TLE line 2: 2 30867 97.8771 110.3834 0054048 107.0078 282.2595 14.26015617943113

Live tracking on map

Real-time ground track for satellite FENGYUN 1C DEB.

In-orbit conjunctions

A list of the most updated potential collisions computed for object FENGYUN 1C DEB.

Target Orbit TCA Probability of collision Miss distance Type
SL-8 R/B LEO 2025-03-06 18:35:27 0.0004786913 167.0 (m) ROCKET BODY
NOAA 16 DEB SSO 2024-11-10 10:47:12 0.001604807 117.0 (m) DEBRIS

Associated space launch

Chinese polar orbiting meteorological satellite

FENGYUN 1C DEB was lifted into orbit during the mission ‘Long March 4B | Feng Yun 1C’, on board a Long March 4B space rocket.

The launch took place on May 10, 1999, 1:33 a.m. from Launch Complex 7.

For more information about the launch, click the button.

Launch to space Long March 4B | Feng Yun 1C
Long March 4B | Feng Yun 1C

Agency: N/A

Status: Launch Successful

Launch date: May 10, 1999, 1:33 a.m. UTC

Rocket: Long March 4B

Launch pad: Launch Complex 7

Location: Taiyuan Satellite Launch Center, People's Republic of China

...

Latest news about this satellite

There are no fresh news available about this satellite. Check back as we update our databases every day.


Newsletter sign-up

Weekly statistics, charts and insights to help you stay on top of the space industry.